Location: Banios
(43.0451°N, 0.2335°E)
Time: 01:36:44
(UTC+00:00)

A-11 Canister half - Visible Passes

Search period start: 02 December 2021 00:00
Search period end: 12 December 2021 00:00
Orbit: 1516 x 1684 km, 47.2° (Epoch: 01 December)

Date Brightness Start Highest point End Pass type
(mag) Time Alt. Az. Time Alt. Az. Time Alt. Az.
02 Dec 10.7 05:57:15 10° SSW 06:05:36 35° SE 06:14:12 10° ENE visible
03 Dec 10.7 05:34:36 10° S 05:42:45 33° SE 05:51:08 10° ENE visible
04 Dec 10.7 05:11:59 10° S 05:19:55 31° SE 05:28:04 10° ENE visible
05 Dec 10.7 04:49:24 10° S 04:57:06 29° SE 05:04:59 10° ENE visible
06 Dec 10.7 04:26:50 10° S 04:34:16 27° SE 04:41:53 10° ENE visible
06 Dec 9.4 06:28:28 10° SW 06:38:02 73° SSE 06:47:58 10° ENE visible
07 Dec 10.7 04:04:18 10° S 04:11:27 25° SE 04:18:46 10° E visible
07 Dec 9.4 06:05:37 10° SW 06:15:07 70° SSE 06:24:59 10° ENE visible
08 Dec 10.8 03:41:49 10° S 03:48:38 23° SE 03:55:37 10° E visible
08 Dec 9.4 05:42:47 10° SW 05:52:12 67° SSE 06:02:00 10° ENE visible
09 Dec 10.8 03:19:21 10° S 03:25:50 21° SE 03:32:26 10° E visible
09 Dec 9.4 05:19:57 10° SW 05:29:18 64° SE 05:39:01 10° ENE visible
10 Dec 10.8 02:59:12 15° SSE 03:03:01 19° SE 03:09:13 10° E visible
10 Dec 9.4 04:57:30 11° SW 05:06:25 61° SE 05:16:03 10° ENE visible
11 Dec 10.8 02:38:44 17° SE 02:40:14 18° SE 02:45:57 10° E visible
11 Dec 9.4 04:37:01 22° SSW 04:43:31 58° SE 04:53:04 10° ENE visible
11 Dec 9.1 06:38:46 10° W 06:48:25 77° NNW 06:58:27 10° ENE visible
